(°C)
14°
15°
16°
19°
21°
23°
24°
(°C)
13°
14°
16°
18°
20°
21°
23°
E
E
E
ESE
ESE
ESE
E
(km/h)
6-14
5-17
5-15
7-17
9-14
10-16
9-18
(mm)
0
0
0
0
0
0
0
(%)
0
0
0
0
0
0
0

Elevația soarelui

/ 4.1°
sun-icon
UV 7
04:12
21:01
Primul pătrar (82°)
11:19
00:56

METAR pentru 52.17°N 20.97°E (EPWA)

Ora Condiții Temperatură/
Punctul de rouă
Vânt Vizibilitate Vremea Nori Presiune Schimbă Brut
VFR 14°C / 9°C 110º 2kt >10km - Clouds and Visibility OK 1020 No Significant change EPWA 170230Z 11002KT CAVOK 14/09 Q1020 NOSIG
VFR 14°C / 9°C 110º 3kt >10km - Clouds and Visibility OK 1020 No Significant change EPWA 170200Z 11003KT CAVOK 14/09 Q1020 NOSIG
VFR 15°C / 9°C 90º 3kt >10km - Clouds and Visibility OK 1020 No Significant change EPWA 170130Z 09003KT CAVOK 15/09 Q1020 NOSIG
VFR 15°C / 9°C 100º 3kt >10km - Clouds and Visibility OK 1020 No Significant change EPWA 170100Z 10003KT CAVOK 15/09 Q1020 NOSIG
VFR 15°C / 9°C 100º 3kt >10km - Clouds and Visibility OK 1020 No Significant change EPWA 170030Z 10003KT CAVOK 15/09 Q1020 NOSIG
VFR 15°C / 9°C 110º 2kt >10km - Clouds and Visibility OK 1020 No Significant change EPWA 170000Z 11002KT CAVOK 15/09 Q1020 NOSIG
VFR 16°C / 9°C 100º 5kt >10km - Clouds and Visibility OK 1020 No Significant change EPWA 162330Z 10005KT CAVOK 16/09 Q1020 NOSIG
VFR 17°C / 10°C 100º 6kt >10km - Clouds and Visibility OK 1020 No Significant change EPWA 162300Z 10006KT CAVOK 17/10 Q1020 NOSIG
VFR 18°C / 10°C 100º 5kt >10km - Clouds and Visibility OK 1020 No Significant change EPWA 162230Z 10005KT CAVOK 18/10 Q1020 NOSIG
VFR 18°C / 10°C 90º 6kt >10km - Clouds and Visibility OK 1020 No Significant change EPWA 162200Z 09006KT CAVOK 18/10 Q1020 NOSIG
VFR 20°C / 9°C 80º 6kt >10km - Clouds and Visibility OK 1020 No Significant change EPWA 162130Z 08006KT CAVOK 20/09 Q1020 NOSIG
VFR 21°C / 9°C 60º variable 020º to 100º 5kt >10km - Clouds and Visibility OK 1020 No Significant change EPWA 162100Z 06005KT 020V100 CAVOK 21/09 Q1020 NOSIG
VFR 21°C / 7°C 40º 4kt >10km - Clouds and Visibility OK 1019 No Significant change EPWA 162030Z 04004KT CAVOK 21/07 Q1019 NOSIG
VFR 21°C / 7°C 40º variable 020º to 080º 4kt >10km - Clouds and Visibility OK 1019 No Significant change EPWA 162000Z 04004KT 020V080 CAVOK 21/07 Q1019 NOSIG
VFR 21°C / 7°C 30º variable 010º to 070º 5kt >10km - Clouds and Visibility OK 1019 No Significant change EPWA 161930Z 03005KT 010V070 CAVOK 21/07 Q1019 NOSIG
VFR 22°C / 7°C 20º 7kt >10km - Clouds and Visibility OK 1019 No Significant change EPWA 161900Z 02007KT CAVOK 22/07 Q1019 NOSIG
VFR 23°C / 9°C 20º 7kt >10km - Clouds and Visibility OK 1019 No Significant change EPWA 161830Z 02007KT CAVOK 23/09 Q1019 NOSIG
VFR 23°C / 10°C 10º 6kt >10km - Clouds and Visibility OK 1018 No Significant change EPWA 161800Z 01006KT CAVOK 23/10 Q1018 NOSIG
VFR 24°C / 11°C 360º variable 330º to 030º 6kt >10km - Clouds and Visibility OK 1018 No Significant change EPWA 161730Z 36006KT 330V030 CAVOK 24/11 Q1018 NOSIG
VFR 24°C / 12°C 320º 5kt >10km - Clouds and Visibility OK 1018 No Significant change EPWA 161700Z 32005KT CAVOK 24/12 Q1018 NOSIG
VFR 24°C / 13°C 290º variable 190º to 320º 5kt >10km - Clouds and Visibility OK 1018 No Significant change EPWA 161630Z 29005KT 190V320 CAVOK 24/13 Q1018 NOSIG
VFR 25°C / 12°C 280º variable 230º to 350º 4kt >10km - Clouds and Visibility OK 1018 No Significant change EPWA 161600Z 28004KT 230V350 CAVOK 25/12 Q1018 NOSIG
VFR 24°C / 13°C 330º variable 290º to 020º 6kt >10km - Clouds and Visibility OK 1018 No Significant change EPWA 161530Z 33006KT 290V020 CAVOK 24/13 Q1018 NOSIG
VFR 25°C / 13°C 310º variable 260º to 020º 7kt >10km - Clouds and Visibility OK 1018 No Significant change EPWA 161500Z 31007KT 260V020 CAVOK 25/13 Q1018 NOSIG

VFR

14°C / 9°C

[Mai mult]
Vânt 110º 2kt
Vizibilitate >10km
Vremea -
Nori Clouds and Visibility OK
Presiune 1020
Schimbă No Significant change
Brut EPWA 170230Z 11002KT CAVOK 14/09 Q1020 NOSIG

VFR

14°C / 9°C

[Mai mult]
Vânt 110º 3kt
Vizibilitate >10km
Vremea -
Nori Clouds and Visibility OK
Presiune 1020
Schimbă No Significant change
Brut EPWA 170200Z 11003KT CAVOK 14/09 Q1020 NOSIG

VFR

15°C / 9°C

[Mai mult]
Vânt 90º 3kt
Vizibilitate >10km
Vremea -
Nori Clouds and Visibility OK
Presiune 1020
Schimbă No Significant change
Brut EPWA 170130Z 09003KT CAVOK 15/09 Q1020 NOSIG

VFR

15°C / 9°C

[Mai mult]
Vânt 100º 3kt
Vizibilitate >10km
Vremea -
Nori Clouds and Visibility OK
Presiune 1020
Schimbă No Significant change
Brut EPWA 170100Z 10003KT CAVOK 15/09 Q1020 NOSIG

VFR

15°C / 9°C

[Mai mult]
Vânt 100º 3kt
Vizibilitate >10km
Vremea -
Nori Clouds and Visibility OK
Presiune 1020
Schimbă No Significant change
Brut EPWA 170030Z 10003KT CAVOK 15/09 Q1020 NOSIG

VFR

15°C / 9°C

[Mai mult]
Vânt 110º 2kt
Vizibilitate >10km
Vremea -
Nori Clouds and Visibility OK
Presiune 1020
Schimbă No Significant change
Brut EPWA 170000Z 11002KT CAVOK 15/09 Q1020 NOSIG

VFR

16°C / 9°C

[Mai mult]
Vânt 100º 5kt
Vizibilitate >10km
Vremea -
Nori Clouds and Visibility OK
Presiune 1020
Schimbă No Significant change
Brut EPWA 162330Z 10005KT CAVOK 16/09 Q1020 NOSIG

VFR

17°C / 10°C

[Mai mult]
Vânt 100º 6kt
Vizibilitate >10km
Vremea -
Nori Clouds and Visibility OK
Presiune 1020
Schimbă No Significant change
Brut EPWA 162300Z 10006KT CAVOK 17/10 Q1020 NOSIG

VFR

18°C / 10°C

[Mai mult]
Vânt 100º 5kt
Vizibilitate >10km
Vremea -
Nori Clouds and Visibility OK
Presiune 1020
Schimbă No Significant change
Brut EPWA 162230Z 10005KT CAVOK 18/10 Q1020 NOSIG

VFR

18°C / 10°C

[Mai mult]
Vânt 90º 6kt
Vizibilitate >10km
Vremea -
Nori Clouds and Visibility OK
Presiune 1020
Schimbă No Significant change
Brut EPWA 162200Z 09006KT CAVOK 18/10 Q1020 NOSIG

VFR

20°C / 9°C

[Mai mult]
Vânt 80º 6kt
Vizibilitate >10km
Vremea -
Nori Clouds and Visibility OK
Presiune 1020
Schimbă No Significant change
Brut EPWA 162130Z 08006KT CAVOK 20/09 Q1020 NOSIG

VFR

21°C / 9°C

[Mai mult]
Vânt 60º variable 020º to 100º 5kt
Vizibilitate >10km
Vremea -
Nori Clouds and Visibility OK
Presiune 1020
Schimbă No Significant change
Brut EPWA 162100Z 06005KT 020V100 CAVOK 21/09 Q1020 NOSIG

VFR

21°C / 7°C

[Mai mult]
Vânt 40º 4kt
Vizibilitate >10km
Vremea -
Nori Clouds and Visibility OK
Presiune 1019
Schimbă No Significant change
Brut EPWA 162030Z 04004KT CAVOK 21/07 Q1019 NOSIG

VFR

21°C / 7°C

[Mai mult]
Vânt 40º variable 020º to 080º 4kt
Vizibilitate >10km
Vremea -
Nori Clouds and Visibility OK
Presiune 1019
Schimbă No Significant change
Brut EPWA 162000Z 04004KT 020V080 CAVOK 21/07 Q1019 NOSIG

VFR

21°C / 7°C

[Mai mult]
Vânt 30º variable 010º to 070º 5kt
Vizibilitate >10km
Vremea -
Nori Clouds and Visibility OK
Presiune 1019
Schimbă No Significant change
Brut EPWA 161930Z 03005KT 010V070 CAVOK 21/07 Q1019 NOSIG

VFR

22°C / 7°C

[Mai mult]
Vânt 20º 7kt
Vizibilitate >10km
Vremea -
Nori Clouds and Visibility OK
Presiune 1019
Schimbă No Significant change
Brut EPWA 161900Z 02007KT CAVOK 22/07 Q1019 NOSIG

VFR

23°C / 9°C

[Mai mult]
Vânt 20º 7kt
Vizibilitate >10km
Vremea -
Nori Clouds and Visibility OK
Presiune 1019
Schimbă No Significant change
Brut EPWA 161830Z 02007KT CAVOK 23/09 Q1019 NOSIG

VFR

23°C / 10°C

[Mai mult]
Vânt 10º 6kt
Vizibilitate >10km
Vremea -
Nori Clouds and Visibility OK
Presiune 1018
Schimbă No Significant change
Brut EPWA 161800Z 01006KT CAVOK 23/10 Q1018 NOSIG

VFR

24°C / 11°C

[Mai mult]
Vânt 360º variable 330º to 030º 6kt
Vizibilitate >10km
Vremea -
Nori Clouds and Visibility OK
Presiune 1018
Schimbă No Significant change
Brut EPWA 161730Z 36006KT 330V030 CAVOK 24/11 Q1018 NOSIG

VFR

24°C / 12°C

[Mai mult]
Vânt 320º 5kt
Vizibilitate >10km
Vremea -
Nori Clouds and Visibility OK
Presiune 1018
Schimbă No Significant change
Brut EPWA 161700Z 32005KT CAVOK 24/12 Q1018 NOSIG

VFR

24°C / 13°C

[Mai mult]
Vânt 290º variable 190º to 320º 5kt
Vizibilitate >10km
Vremea -
Nori Clouds and Visibility OK
Presiune 1018
Schimbă No Significant change
Brut EPWA 161630Z 29005KT 190V320 CAVOK 24/13 Q1018 NOSIG

VFR

25°C / 12°C

[Mai mult]
Vânt 280º variable 230º to 350º 4kt
Vizibilitate >10km
Vremea -
Nori Clouds and Visibility OK
Presiune 1018
Schimbă No Significant change
Brut EPWA 161600Z 28004KT 230V350 CAVOK 25/12 Q1018 NOSIG

VFR

24°C / 13°C

[Mai mult]
Vânt 330º variable 290º to 020º 6kt
Vizibilitate >10km
Vremea -
Nori Clouds and Visibility OK
Presiune 1018
Schimbă No Significant change
Brut EPWA 161530Z 33006KT 290V020 CAVOK 24/13 Q1018 NOSIG

VFR

25°C / 13°C

[Mai mult]
Vânt 310º variable 260º to 020º 7kt
Vizibilitate >10km
Vremea -
Nori Clouds and Visibility OK
Presiune 1018
Schimbă No Significant change
Brut EPWA 161500Z 31007KT 260V020 CAVOK 25/13 Q1018 NOSIG

TAF pentru 52.17°N 20.97°E (EPWA)

From till


From till Wind 110º 5kt. Visibility 10km or more. Nil Significant Cloud.

Brut: TAF EPWA 170230Z 1703/1803 11005KT CAVOK

rainNOW

0.0 mm
0.0 mm
0.0 mm
0.0 mm
0.0 mm
0.0 mm
0.0 mm
0.0 mm
0.0 mm
0.0 mm
0.0 mm
0.0 mm

Imagini satelitare și ploaie pentru 52.17°N 20.97°E

Markerul cu locaţia este poziţionat pe 52.17°N 20.97°E. [Mai mult]

Imaginea satelitară în timp real combină lumina vizibilă din timpul zilei cu radiația cu infraroșu din timpul nopții. Pe timp de noapte, imaginea nu este întunecată, deoarece radiația cu infraroșu poate detecta diferențele de temperatură. Din păcate, norii joși și ceața sunt greu de recunoscut față de temperatura de la sol, din această cauză putând fi invizibili pe timp de noapte. Imaginile satelitare Meteosat pentru Europa sunt actualizate în timp real din 5 în 5 minute. Imaginile GOES-16/GOES-17 (America de Nord și de Sud) și Himawari (Asia) sunt actualizate din 10 în 10 minute.

Cantitatea de precipitaţii este estimată cu ajutorul radarelor şi a sateliţilor. Estimările satelitare privind cantitatea de precipitaţii sunt mai puţin exacte noaptea decât în timpul zilei. Crucile portocalii marchează locurile unde fulger a fost detectat (over Europa).

Toate drepturile rezervate 2021 EUMETSAT / meteoblue. Datele despre fulgere furnizate de către nowcast.

Radar și nowcast de precipitații pentru 52.17°N 20.97°E

Markerul de locație este plasat în 52.17°N 20.97°E. Această animație arată radarul de precipitații pentru ultima oră, precum și o 1h prognoză. Bruma și fulguiala pot fi invizibile pe radar. Intensitatea precipitațiilor este reprezentată prin culori, de la albastru deschis la violet închis.